(148798) = 2001 UL75

Discovered at Socorro on 2001-10-17 by LINEAR.

Orbit

Orbit type: Main Belt

Note: WebGL enabled browser required.

epoch2024-03-31.0
epoch JD2460400.5
perihelion date2023-12-26.77628
perihelion JD2460305.27628
argument of perihelion (°)279.54397
ascending node (°)143.87197
inclination (°)5.33543
eccentricity0.1585421
perihelion distance (AU)2.2585874
Tisserand w.r.t. Jupiter3.4
ΔV w.r.t. Earth (km/sec)9.6
semimajor axis (AU)2.6841360
mean anomaly (°)21.34235
mean daily motion (°/day)0.22412850
aphelion distance (AU)3.110
period (years)4.4
P-vector [x]0.44499123
P-vector [y]0.85379431
P-vector [z]0.27021858
Q-vector [x]-0.89385521
Q-vector [y]0.40498232
Q-vector [z]0.19238550
absolute magnitude15.94
phase slope0.15
uncertainty0
referenceMPEC 2024-C115
observations used772
oppositions17
arc length (days)10979
first opposition used1994
last opposition used2024
residual rms (arc-secs)0.74
perturbers coarse indicatorM-v
perturbers precise indicator003Ek
first observation date used1994-01-19.0
last observation date used2024-02-10.0
computer nameMPCLINUX
JD of orbit computation2456966.903008
perihelion JD uncertainty (days)7.6956E-05
argument of perihelion uncertainty (°)5.7000E-05
ascending node uncertainty (°)5.4026E-05
inclination uncertainty (°)4.7879E-06
eccentricity uncertainty 4.0959E-08
perihelion distance uncertainty (AU)1.1253E-07
Minimum Orbit Intersection Distances (in AU)
for orbit epoch: 2460200.5, reference: E2024-CB5
Mercury1.95092
Venus1.54014
Earth1.27808
Mars0.74254
Jupiter2.21316
Saturn6.6829
Uranus15.6098
Neptune27.3616

Observations

788 total observations over interval: 1994 01 19.50666 – 2024 02 10.289345
These data are available for download (format description).

Date (UT) J2000 RA J2000 Dec Magn Location Ref
1994 01 19.50666 11 18 05.66 +05 32 51.0 20.0 V 691 – Steward Observatory, Kitt Peak-Spacewatch MPS 79962
1994 01 19.52163 11 18 05.41 +05 32 53.5 20.1 V 691 – Steward Observatory, Kitt Peak-Spacewatch MPS 79962
1994 01 19.53651 11 18 05.27 +05 32 56.3 20.0 V 691 – Steward Observatory, Kitt Peak-Spacewatch MPS 79962
2001 10 17.32489 03 28 42.20 +09 55 58.3 19.7   704 – Lincoln Laboratory ETS, New Mexico MPS 41129
2001 10 17.34078 03 28 41.68 +09 55 53.4 19.8   704 – Lincoln Laboratory ETS, New Mexico MPS 41129
2001 10 17.35677 03 28 41.20 +09 55 49.2 19.9   704 – Lincoln Laboratory ETS, New Mexico MPS 41129
2001 10 17.37266 03 28 40.71 +09 55 44.8 19.7   704 – Lincoln Laboratory ETS, New Mexico MPS 41129
2001 10 17.38859 03 28 40.20 +09 55 40.0 19.8   704 – Lincoln Laboratory ETS, New Mexico MPS 41129
2001 10 19.40082 03 27 37.38 +09 45 57.0 21.2   608 – Haleakala-AMOS MPS 44484
2001 10 19.41105 03 27 37.01 +09 45 54.4 20.4   608 – Haleakala-AMOS MPS 44484
2001 10 19.42137 03 27 36.63 +09 45 53.8 20.5   608 – Haleakala-AMOS MPS 44484
2001 10 22.29880 03 25 55.52 +09 31 47.2 18.4   704 – Lincoln Laboratory ETS, New Mexico MPS 41129
2001 10 22.31518 03 25 54.82 +09 31 42.9 19.6   704 – Lincoln Laboratory ETS, New Mexico MPS 41129
2001 10 22.33252 03 25 54.23 +09 31 37.4 19.3   704 – Lincoln Laboratory ETS, New Mexico MPS 41129
2001 10 22.36613 03 25 52.88 +09 31 27.1 19.3   704 – Lincoln Laboratory ETS, New Mexico MPS 41129
2001 10 24.27112 03 24 39.49 +09 22 06.3 19.1   704 – Lincoln Laboratory ETS, New Mexico MPS 44484
2001 10 24.30418 03 24 38.05 +09 21 55.7 19.3   704 – Lincoln Laboratory ETS, New Mexico MPS 44484
2001 10 24.32091 03 24 37.36 +09 21 49.4 19.0   704 – Lincoln Laboratory ETS, New Mexico MPS 44484
2001 10 27.31936 03 22 31.86 +09 07 09.7 18.8   704 – Lincoln Laboratory ETS, New Mexico MPS 41129
2001 10 27.33573 03 22 31.12 +09 07 05.1 19.1   704 – Lincoln Laboratory ETS, New Mexico MPS 41129
2001 10 27.35211 03 22 30.40 +09 06 59.9 19.1   704 – Lincoln Laboratory ETS, New Mexico MPS 41129
2001 10 27.36846 03 22 29.61 +09 06 55.2 19.2   704 – Lincoln Laboratory ETS, New Mexico MPS 41129
2001 10 27.38484 03 22 28.86 +09 06 50.2 19.2   704 – Lincoln Laboratory ETS, New Mexico MPS 41129
2001 11 15.44262 03 06 29.57 +07 44 49.0 18.5   644 – Palomar Mountain/NEAT MPS 42088
2001 11 15.46381 03 06 28.42 +07 44 44.8 18.8   644 – Palomar Mountain/NEAT MPS 42088
2001 11 15.48527 03 06 27.27 +07 44 40.1 18.5   644 – Palomar Mountain/NEAT MPS 42088
2001 11 17.22261 03 04 57.41 +07 39 05.6 19.0   704 – Lincoln Laboratory ETS, New Mexico MPS 42088
2001 11 17.23722 03 04 56.54 +07 39 02.8 18.9   704 – Lincoln Laboratory ETS, New Mexico MPS 42088
2001 11 17.25213 03 04 55.75 +07 38 59.7 18.9   704 – Lincoln Laboratory ETS, New Mexico MPS 42088
2001 11 17.26757 03 04 54.94 +07 38 57.6 18.9   704 – Lincoln Laboratory ETS, New Mexico MPS 42088
2001 11 20.22255 03 02 24.80 +07 30 28.5 18.9   704 – Lincoln Laboratory ETS, New Mexico MPS 44484
2001 11 20.23707 03 02 24.05 +07 30 26.9 19.3   704 – Lincoln Laboratory ETS, New Mexico MPS 44484
2001 11 20.25265 03 02 23.20 +07 30 24.6 18.8   704 – Lincoln Laboratory ETS, New Mexico MPS 44484
2001 11 20.26720 03 02 22.47 +07 30 23.1 18.9   704 – Lincoln Laboratory ETS, New Mexico MPS 44484
2001 11 24.24271 02 59 10.38 +07 21 16.2 18.4   704 – Lincoln Laboratory ETS, New Mexico MPS 49586
2001 11 24.25694 02 59 09.76 +07 21 14.7 18.5   704 – Lincoln Laboratory ETS, New Mexico MPS 49586
2001 11 24.27142 02 59 09.00 +07 21 11.3 19.3   704 – Lincoln Laboratory ETS, New Mexico MPS 49586
2001 12 07.23185 02 50 49.12 +07 11 28.5 19.7   704 – Lincoln Laboratory ETS, New Mexico MPS 44484
2001 12 07.24678 02 50 48.70 +07 11 28.3 19.5   704 – Lincoln Laboratory ETS, New Mexico MPS 44484
2001 12 07.26246 02 50 48.16 +07 11 30.0 19.4   704 – Lincoln Laboratory ETS, New Mexico MPS 44484
2001 12 07.27780 02 50 47.67 +07 11 30.3 19.5   704 – Lincoln Laboratory ETS, New Mexico MPS 44484
2003 02 27.13670 12 27 35.93 +01 37 48.9 19.7 R 599 – Campo Imperatore-CINEOS MPS 74096
2003 02 27.14889 12 27 35.45 +01 37 53.8 19.3 R 599 – Campo Imperatore-CINEOS MPS 74096
2003 02 27.16109 12 27 35.01 +01 37 57.7 19.6 R 599 – Campo Imperatore-CINEOS MPS 74096
2003 02 27.17329 12 27 34.59 +01 38 02.8 19.5 R 599 – Campo Imperatore-CINEOS MPS 74096
2003 03 09.32954 12 20 46.51 +02 45 40.3 20.3   704 – Lincoln Laboratory ETS, New Mexico MPS 74096
2003 03 09.34323 12 20 45.91 +02 45 46.1 19.9   704 – Lincoln Laboratory ETS, New Mexico MPS 74096
2003 03 09.35648 12 20 45.28 +02 45 51.6 19.9   704 – Lincoln Laboratory ETS, New Mexico MPS 74096
2003 03 09.36987 12 20 44.70 +02 45 58.1 19.8   704 – Lincoln Laboratory ETS, New Mexico MPS 74096
2003 03 10.28092 12 20 03.84 +02 52 16.9 19.4 R 699 – Lowell Observatory-LONEOS MPS 74096
2003 03 10.29915 12 20 03.02 +02 52 25.2   699 – Lowell Observatory-LONEOS MPS 74096
2003 03 10.31746 12 20 02.12 +02 52 31.8   699 – Lowell Observatory-LONEOS MPS 74096
2003 03 10.33564 12 20 01.38 +02 52 41.4   699 – Lowell Observatory-LONEOS MPS 74096
2005 08 24.44807 23 42 32.95 -05 15 37.5 19.1   644 – Palomar Mountain/NEAT MPS 139615
2005 08 24.45950 23 42 32.56 -05 15 41.9 19.1   644 – Palomar Mountain/NEAT MPS 139615
2005 08 24.47562 23 42 32.01 -05 15 48.3 19.5   644 – Palomar Mountain/NEAT MPS 139615
2005 08 26.36958 23 41 26.08 -05 28 27.8 19.0 R 699 – Lowell Observatory-LONEOS MPS 139615
2005 08 26.38797 23 41 25.44 -05 28 35.4   699 – Lowell Observatory-LONEOS MPS 139615
2005 08 26.40634 23 41 24.67 -05 28 43.0   699 – Lowell Observatory-LONEOS MPS 139615
2005 08 26.42475 23 41 24.02 -05 28 50.0   699 – Lowell Observatory-LONEOS MPS 139615
2005 08 26.43722 23 41 23.45 -05 28 55.0 19.1 R 699 – Lowell Observatory-LONEOS MPS 139615
2005 08 26.44833 23 41 23.11 -05 28 59.2   699 – Lowell Observatory-LONEOS MPS 139615
2005 08 26.45943 23 41 22.62 -05 29 04.5   699 – Lowell Observatory-LONEOS MPS 139615
2005 08 26.47054 23 41 22.26 -05 29 09.5   699 – Lowell Observatory-LONEOS MPS 139615
2005 08 29.25802 23 39 37.99 -05 48 27.8 19.8   704 – Lincoln Laboratory ETS, New Mexico MPS 140132
2005 08 29.26930 23 39 37.46 -05 48 33.9 19.5   704 – Lincoln Laboratory ETS, New Mexico MPS 140132
2005 08 29.28042 23 39 37.06 -05 48 36.8 20.1   704 – Lincoln Laboratory ETS, New Mexico MPS 140132
2005 08 29.29157 23 39 36.70 -05 48 42.8 19.5   704 – Lincoln Laboratory ETS, New Mexico MPS 140132
2005 08 29.30866 23 39 35.92 -05 48 50.1 19.7 V 691 – Steward Observatory, Kitt Peak-Spacewatch MPS 140132
2005 08 29.32618 23 39 35.20 -05 48 57.5 19.6 V 691 – Steward Observatory, Kitt Peak-Spacewatch MPS 140132
2005 08 29.33185 23 39 34.96 -05 49 00.4 18.8 R 699 – Lowell Observatory-LONEOS MPS 140132
2005 08 29.34364 23 39 34.49 -05 49 05.1 19.6 V 691 – Steward Observatory, Kitt Peak-Spacewatch MPS 140132
2005 08 29.35010 23 39 34.21 -05 49 07.2   699 – Lowell Observatory-LONEOS MPS 140132
2005 08 29.36834 23 39 33.51 -05 49 15.0   699 – Lowell Observatory-LONEOS MPS 140132
2005 08 29.38658 23 39 32.74 -05 49 22.9   699 – Lowell Observatory-LONEOS MPS 140133
2005 09 06.20407 23 34 00.91 -06 46 39.4 19.0 R 699 – Lowell Observatory-LONEOS MPS 141020
2005 09 06.22582 23 33 59.87 -06 46 47.9   699 – Lowell Observatory-LONEOS MPS 141020
2005 09 06.24755 23 33 58.88 -06 46 59.5   699 – Lowell Observatory-LONEOS MPS 141020
2005 09 06.26929 23 33 57.86 -06 47 08.2   699 – Lowell Observatory-LONEOS MPS 141020
2005 09 11.29436 23 30 04.10 -07 24 55.4 19.1 V 691 – Steward Observatory, Kitt Peak-Spacewatch MPS 141649
2005 09 11.31171 23 30 03.25 -07 25 03.2 19.1 V 691 – Steward Observatory, Kitt Peak-Spacewatch MPS 141649
2005 09 11.32952 23 30 02.37 -07 25 11.2 19.1 V 691 – Steward Observatory, Kitt Peak-Spacewatch MPS 141649
2005 09 22.25354 23 21 23.34 -08 44 02.7 19.0 R 644 – Palomar Mountain/NEAT MPS 143685
2005 09 22.27558 23 21 22.26 -08 44 11.4 19.0 R 644 – Palomar Mountain/NEAT MPS 143685
2005 09 22.29615 23 21 21.27 -08 44 20.0 19.1 R 644 – Palomar Mountain/NEAT MPS 143685
2005 09 23.23508 23 20 37.93 -08 50 38.0 19.5 V 703 – Catalina Sky Survey MPS 142200
2005 09 23.24152 23 20 37.71 -08 50 41.5 19.2 V 703 – Catalina Sky Survey MPS 142200
